Location: Eferding
(48.3167°N, 14.0167°E)
Time: 08:08:19
(UTC+00:00)

Cosmos 2056 Rocket - Pass Details

Date: 12 November 2019
Orbit: 742 x 800 km, 74.0° (Epoch: 11 December)

Event Time Altitude Azimuth Distance (km) Brightness Sun altitude
Rises 17:36:36 0° 342° (NNW) 3,194 6.9 -21.1°
Reaches altitude 10° 17:39:08 10° 351° (N) 2,268 6.0 -21.6°
Enters shadow 17:42:41 32° 28° (NNE) 1,265 4.3 -22.2°
